[[{"header":{"parameterUnit":"m.s-1","parameterCategory":1,"la1":30.2991,"la2":30.254,"lo1":-89.0895,"lo2":-89.0444,"dy":0.0017,"dx":0.0017,"nx":28,"ny":28,"refTime":"2023-09-17T03:00:00:Z","depth":0,"parameterNumber":2,"parameterNumberName":"U-component_of_WINDS"},"data":[0,0,0,0,0,0,0,0,0,0,0,0,0,0,0,0,0,0,0,0,0,0,0,0,0,0,0,0,0,0,0,0,0,0,0,0,0,0,0,0,0,0,0,0,0,0,0,0,0,0,0,0,0,0,0,0,0,0,0.4272,0.4272,0,0.4288,0.4288,0.4288,0.4285,0.4285,0.4284,0.4284,0.4301,0.4302,0.4303,0,0,0,0,0,0,0,0,0,0,0,0,0,0.4239,0.4239,0.4271,0.4272,0.4272,0.4288,0.4288,0.4288,0.4285,0.4285,0.4284,0.4284,0.4301,0.4302,0.4303,0,0,0,0,0,0,0,0,0,0,0,0,0,0.4254,0.424,0.4271,0.4272,0.4272,0.4288,0.4288,0.4288,0.4285,0.4285,0.4284,0.4284,0.4301,0.4302,0.4303,0.4319,0,0,0.4306,0.4307,0,0,0,0,0,0,0,0,0.4253,0.4255,0.4272,0.4272,0.4272,0.4284,0.4283,0.4299,0.4285,0.428,0.4284,0.4283,0.4296,0.4297,0.4302,0.432,0.4321,0.4307,0.4307,0.4308,0.4308,0,0,0,0,0,0,0,0.4252,0.4254,0.4278,0.4272,0.4272,0.4272,0.4274,0.4286,0.429,0.4281,0.428,0.4282,0.4296,0.43,0.4302,0.4321,0.4306,0.4307,0.4308,0.4309,0.4355,0.4355,0,0,0,0,0,0,0.4251,0.4254,0.4277,0.4278,0.4261,0.4273,0.4275,0.4281,0.429,0.4291,0.4283,0.4282,0.4299,0.4301,0.4302,0.4323,0.4308,0.4309,0.4309,0.4354,0.4355,0.4355,0,0,0,0,0,0,0.425,0.4253,0.4277,0.4266,0.4269,0.4274,0.4281,0.4281,0.4286,0.4292,0.4293,0.4286,0.4298,0.4301,0.4315,0.4324,0.4309,0.431,0.4354,0.4354,0.4355,0.4364,0,0,0,0,0,0,0.4249,0.4253,0.4258,0.4266,0.427,0.4289,0.4281,0.4282,0.4288,0.4287,0.4296,0.4297,0.4298,0.4314,0.4316,0.4325,0.4311,0.4353,0.4354,0.4355,0.4363,0.4365,0.4366,0,0,0,0,0,0.4248,0.426,0.4258,0.4261,0.4277,0.4289,0.4291,0.4293,0.4288,0.4294,0.4299,0.4296,0.4322,0.4315,0.4318,0.4327,0.4352,0.4354,0.4355,0.4362,0.4364,0.4366,0,0,0,0,0,0,0.4253,0.4261,0.4259,0.4274,0.4281,0.4289,0.4296,0.4295,0.4304,0.4303,0.4305,0.4307,0.4322,0.4326,0.4318,0.4344,0.4337,0.4339,0.4341,0.4343,0.4345,0.4344,0.4312,0,0,0,0,0,0.4255,0.4264,0.4271,0.4284,0.4287,0.4291,0.4297,0.4297,0.4305,0.4308,0.4313,0.432,0.433,0.4337,0.4346,0.4363,0.4366,0.4371,0.4373,0.4374,0.4376,0.4387,0.439,0.436,0.436,0.436,0,0,0.4261,0.4267,0.4272,0.4285,0.429,0.43,0.4294,0.4304,0.4312,0.4309,0.4324,0.4328,0.4336,0.4352,0.436,0.4356,0.4385,0.4376,0.4377,0.4378,0.4389,0.4391,0.4394,0.436,0.436,0.436,0,0,0.4277,0.4282,0.4293,0.4299,0.4307,0.431,0.4313,0.4321,0.4324,0.4338,0.4337,0.4346,0.4363,0.437,0.4375,0.4395,0.4394,0.4398,0.4408,0.4418,0.4421,0.4423,0.4431,0.4434,0.44,0.44,0.44,0,0.4283,0.4298,0.4299,0.4311,0.4317,0.4315,0.4327,0.4333,0.4344,0.4348,0.4344,0.4366,0.4372,0.439,0.4395,0.4399,0.4403,0.4397,0.442,0.4422,0.4425,0.4433,0.4436,0.44,0.44,0.44,0.44,0,0.4306,0.4316,0.4325,0.4336,0.4343,0.4355,0.4358,0.4365,0.4366,0.4369,0.4385,0.4391,0.4403,0.4407,0.4407,0.4426,0.4424,0.442,0.4413,0.4428,0.4436,0.4439,0.4401,0.4401,0.4401,0.44,0,0,0.4325,0.4338,0.4341,0.4347,0.4356,0.4365,0.4377,0.4388,0.4395,0.4402,0.4413,0.4428,0.4425,0.4432,0.4433,0.4442,0.4459,0.4437,0.4437,0.4442,0.4482,0.4485,0.4489,0.4458,0.4458,0.4459,0.4482,0,0.4343,0.4364,0.4366,0.4386,0.4396,0.4395,0.4406,0.4413,0.4417,0.4427,0.4431,0.4442,0.4437,0.4441,0.445,0.4455,0.4467,0.4453,0.4469,0.447,0.4468,0.4493,0.4496,0.4517,0.4484,0.4485,0.4485,0,0.4367,0.4376,0.4396,0.4406,0.441,0.442,0.4431,0.444,0.4449,0.4452,0.4459,0.4459,0.4473,0.4465,0.4484,0.4475,0.4481,0.4485,0.4486,0.4488,0.4479,0.4497,0.4524,0.4528,0.449,0.4489,0.4489,0,0.438,0.4398,0.4413,0.4417,0.4428,0.4436,0.4441,0.4449,0.4456,0.4466,0.4471,0.4482,0.4489,0.4498,0.4502,0.4495,0.4521,0.4513,0.4525,0.4525,0.4531,0.4531,0.456,0.4533,0.4533,0.4533,0.4533,0,0.4401,0.4414,0.4419,0.4428,0.4443,0.4446,0.4461,0.4465,0.4473,0.4484,0.4483,0.4494,0.4497,0.4509,0.4511,0.4528,0.453,0.4534,0.4534,0.4534,0.4534,0.454,0.4539,0.4534,0.4534,0.4534,0.4533,0,0.4419,0.4423,0.4439,0.4449,0.4452,0.4462,0.4471,0.448,0.4484,0.4498,0.4501,0.4508,0.4521,0.4525,0.4541,0.4543,0.4563,0.4562,0.456,0.4561,0.4573,0.4572,0.4608,0.4613,0.4581,0.4582,0.4582,0,0.4432,0.4442,0.4453,0.446,0.4466,0.4477,0.4485,0.4488,0.4496,0.4507,0.4516,0.4529,0.454,0.4561,0.4568,0.458,0.458,0.4592,0.4582,0.4582,0.4582,0.4582,0.4584,0.4594,0.4595,0.4595,0.4595,0,0.4456,0.4458,0.4468,0.448,0.4489,0.4499,0.4508,0.4514,0.4518,0.4527,0.4541,0.455,0.4566,0.458,0.4593,0.4599,0.4598,0.4598,0.4602,0.4602,0.4602,0.4604,0.4567,0.4597,0.4597,0.4597,0.4597,0.4597,0.4473,0.4482,0.4492,0.4504,0.4511,0.452,0.453,0.4536,0.4547,0.4561,0.4562,0.4577,0.4587,0.4605,0.4612,0.4624,0.4621,0.4626,0.4627,0.4629,0.4631,0.4599,0.4626,0.4626,0.4626,0.4626,0.4626,0,0.4498,0.4504,0.4515,0.4528,0.4539,0.4537,0.4547,0.4556,0.4569,0.4579,0.4589,0.4606,0.462,0.4627,0.4641,0.465,0.465,0.4654,0.4654,0.4655,0.4632,0.4628,0.4653,0.4653,0.4653,0.4653,0.4653,0.4653,0.4512,0.4528,0.4532,0.4552,0.4558,0.4573,0.458,0.4588,0.4596,0.4615,0.4626,0.4631,0.464,0.4655,0.4668,0.467,0.4675,0.4679,0.4681,0.4659,0.4657,0.4654,0.4651,0.468,0.468,0.4704,0.4704,0.4704]},{"header":{"parameterUnit":"m.s-1","parameterCategory":1,"la1":30.2991,"la2":30.254,"lo1":-89.0895,"lo2":-89.0444,"dy":0.0017,"dx":0.0017,"nx":28,"ny":28,"refTime":"2023-09-17T03:00:00:Z","depth":0,"parameterNumber":3,"parameterNumberName":"V-component_of_WINDS"},"data":[0,0,0,0,0,0,0,0,0,0,0,0,0,0,0,0,0,0,0,0,0,0,0,0,0,0,0,0,0,0,0,0,0,0,0,0,0,0,0,0,0,0,0,0,0,0,0,0,0,0,0,0,0,0,0,0,0,0,-3.8879,-3.8878,0,-3.8851,-3.8851,-3.8851,-3.8842,-3.8842,-3.8842,-3.8842,-3.881,-3.8809,-3.8808,0,0,0,0,0,0,0,0,0,0,0,0,0,-3.8923,-3.8922,-3.8879,-3.8878,-3.8878,-3.8851,-3.8851,-3.8851,-3.8842,-3.8842,-3.8842,-3.8842,-3.881,-3.8809,-3.8808,0,0,0,0,0,0,0,0,0,0,0,0,0,-3.89,-3.8922,-3.8879,-3.8871,-3.887,-3.8851,-3.8851,-3.885,-3.8842,-3.8842,-3.8842,-3.8842,-3.881,-3.8809,-3.8808,-3.8794,0,0,-3.8803,-3.8802,0,0,0,0,0,0,0,0,-3.8901,-3.8899,-3.8872,-3.8871,-3.887,-3.885,-3.8855,-3.8831,-3.8842,-3.8852,-3.8842,-3.8843,-3.8823,-3.882,-3.8815,-3.8792,-3.8791,-3.8803,-3.8802,-3.8801,-3.8801,0,0,0,0,0,0,0,-3.8903,-3.89,-3.8868,-3.8872,-3.887,-3.8868,-3.8865,-3.885,-3.8836,-3.8851,-3.8851,-3.8848,-3.8822,-3.8816,-3.8814,-3.8791,-3.8803,-3.8802,-3.8801,-3.88,-3.8761,-3.8761,0,0,0,0,0,0,-3.8906,-3.8901,-3.8869,-3.8867,-3.8887,-3.8867,-3.8864,-3.8856,-3.8837,-3.8834,-3.8848,-3.8848,-3.8818,-3.8815,-3.8812,-3.8798,-3.8801,-3.88,-3.8799,-3.8761,-3.8761,-3.8761,0,0,0,0,0,0,-3.8907,-3.8904,-3.887,-3.8884,-3.8879,-3.8866,-3.8858,-3.8856,-3.8849,-3.8834,-3.8831,-3.8844,-3.8818,-3.8815,-3.88,-3.8797,-3.8799,-3.8798,-3.8761,-3.8761,-3.8761,-3.8768,0,0,0,0,0,0,-3.8909,-3.8904,-3.8898,-3.8884,-3.8879,-3.8858,-3.8858,-3.8855,-3.8847,-3.8847,-3.883,-3.8827,-3.8818,-3.8802,-3.8799,-3.8795,-3.8797,-3.8761,-3.8761,-3.8761,-3.8768,-3.8768,-3.8768,0,0,0,0,0,-3.891,-3.8899,-3.8898,-3.8894,-3.8872,-3.8858,-3.8854,-3.8846,-3.8847,-3.8842,-3.8833,-3.8827,-3.8798,-3.8801,-3.8797,-3.8792,-3.8761,-3.8761,-3.8761,-3.8767,-3.8768,-3.8768,0,0,0,0,0,0,-3.8911,-3.8897,-3.8896,-3.888,-3.8871,-3.8856,-3.8849,-3.8846,-3.8834,-3.8834,-3.8823,-3.8819,-3.8806,-3.8798,-3.8801,-3.8781,-3.878,-3.8778,-3.8786,-3.8786,-3.8786,-3.8788,-3.8795,0,0,0,0,0,-3.891,-3.8901,-3.8889,-3.8876,-3.8872,-3.8861,-3.8855,-3.885,-3.8839,-3.8834,-3.8823,-3.8812,-3.8801,-3.8793,-3.8781,-3.8767,-3.8764,-3.8762,-3.8762,-3.8762,-3.8761,-3.8757,-3.8756,-3.876,-3.876,-3.876,0,0,-3.8906,-3.8898,-3.8892,-3.8876,-3.8868,-3.8859,-3.8858,-3.8846,-3.884,-3.8831,-3.8818,-3.8811,-3.8797,-3.8784,-3.8777,-3.8776,-3.876,-3.8762,-3.8762,-3.8761,-3.8756,-3.8756,-3.8756,-3.8759,-3.8759,-3.8759,0,0,-3.8896,-3.8888,-3.8878,-3.8871,-3.886,-3.8855,-3.8853,-3.884,-3.8835,-3.8823,-3.8818,-3.8809,-3.8789,-3.8781,-3.8774,-3.8766,-3.8762,-3.8763,-3.8763,-3.8758,-3.8758,-3.8758,-3.8757,-3.8757,-3.8762,-3.8762,-3.8762,0,-3.8892,-3.8878,-3.8873,-3.8864,-3.8858,-3.8854,-3.8845,-3.8838,-3.8823,-3.8819,-3.8819,-3.8797,-3.8787,-3.8774,-3.8773,-3.8767,-3.8765,-3.8764,-3.8759,-3.8758,-3.8758,-3.8757,-3.8757,-3.8762,-3.8762,-3.8762,-3.8762,0,-3.8876,-3.8867,-3.886,-3.885,-3.8843,-3.8834,-3.8828,-3.8822,-3.8819,-3.8813,-3.8802,-3.8792,-3.878,-3.8776,-3.8771,-3.8763,-3.8763,-3.8761,-3.876,-3.8758,-3.8757,-3.8757,-3.8763,-3.8762,-3.8762,-3.8762,0,0,-3.8861,-3.8852,-3.8849,-3.8846,-3.8836,-3.8829,-3.8821,-3.8812,-3.8808,-3.8799,-3.8793,-3.8779,-3.8779,-3.8771,-3.8766,-3.8762,-3.876,-3.8761,-3.876,-3.8762,-3.8753,-3.8755,-3.8755,-3.8758,-3.8758,-3.8758,-3.8755,0,-3.885,-3.8836,-3.8834,-3.8822,-3.8815,-3.8814,-3.8807,-3.8801,-3.8797,-3.879,-3.8785,-3.8776,-3.8775,-3.8771,-3.8767,-3.8761,-3.8758,-3.8761,-3.8752,-3.8752,-3.8756,-3.8754,-3.8755,-3.8753,-3.8754,-3.8754,-3.8754,0,-3.8833,-3.8828,-3.8817,-3.8813,-3.881,-3.8804,-3.8798,-3.8791,-3.8785,-3.8783,-3.8777,-3.8774,-3.8767,-3.8767,-3.8758,-3.876,-3.8757,-3.8754,-3.8754,-3.8752,-3.8753,-3.8754,-3.8752,-3.8752,-3.8753,-3.8753,-3.8753,0,-3.8826,-3.8816,-3.8809,-3.8806,-3.88,-3.8797,-3.8794,-3.8788,-3.8785,-3.8779,-3.8777,-3.8769,-3.8765,-3.876,-3.8756,-3.8756,-3.8748,-3.8747,-3.8746,-3.8747,-3.8744,-3.8744,-3.8742,-3.8741,-3.8741,-3.8741,-3.8741,0,-3.8814,-3.8807,-3.8807,-3.8802,-3.8796,-3.8794,-3.8787,-3.8784,-3.878,-3.8776,-3.8774,-3.8769,-3.8764,-3.8759,-3.8755,-3.875,-3.8748,-3.8746,-3.8745,-3.8746,-3.8747,-3.8744,-3.8744,-3.8741,-3.8741,-3.8741,-3.8741,0,-3.8804,-3.8803,-3.8795,-3.8792,-3.8792,-3.8787,-3.8785,-3.8781,-3.8779,-3.8773,-3.8772,-3.8768,-3.8763,-3.8759,-3.8751,-3.8749,-3.8744,-3.8742,-3.8746,-3.8746,-3.8746,-3.8747,-3.8742,-3.8742,-3.874,-3.874,-3.874,0,-3.8796,-3.8792,-3.879,-3.8788,-3.8786,-3.8782,-3.878,-3.8779,-3.8776,-3.8772,-3.8769,-3.8765,-3.8761,-3.8754,-3.875,-3.8745,-3.8744,-3.8743,-3.8743,-3.8746,-3.8746,-3.8746,-3.8747,-3.8743,-3.8743,-3.8743,-3.8743,0,-3.8783,-3.8784,-3.8781,-3.878,-3.8778,-3.8775,-3.8773,-3.8772,-3.877,-3.8768,-3.8764,-3.8762,-3.8757,-3.8753,-3.8749,-3.8746,-3.8745,-3.8743,-3.8743,-3.8744,-3.8748,-3.8748,-3.8748,-3.8743,-3.8743,-3.8743,-3.8743,-3.8743,-3.8774,-3.8772,-3.8772,-3.877,-3.8769,-3.8769,-3.8767,-3.8766,-3.8764,-3.8761,-3.8761,-3.8758,-3.8756,-3.8751,-3.8748,-3.8746,-3.8746,-3.8745,-3.8745,-3.8745,-3.8746,-3.8749,-3.8745,-3.8745,-3.8745,-3.8745,-3.8745,0,-3.8763,-3.8764,-3.8762,-3.8762,-3.8761,-3.8763,-3.8762,-3.8761,-3.8759,-3.8758,-3.8756,-3.8754,-3.8752,-3.875,-3.8748,-3.8747,-3.8747,-3.8746,-3.8746,-3.8747,-3.8745,-3.8747,-3.8747,-3.8747,-3.8747,-3.8747,-3.8747,-3.8747,-3.8756,-3.8754,-3.8756,-3.8754,-3.8755,-3.8754,-3.8754,-3.8754,-3.8754,-3.8752,-3.8751,-3.8751,-3.8751,-3.8749,-3.8748,-3.8748,-3.8747,-3.8748,-3.8747,-3.8746,-3.8746,-3.8746,-3.8747,-3.8748,-3.8748,-3.8749,-3.8749,-3.8749]}]]